| time (UTC) | temp C | wind direction | speed KPH | gust KPH | rain 1hr cm | rain 24hr cm | rain mn cm | humidity % | barometer mb |
| 20260831112550 | 24 | 341 | 6.4 | 11.3 | 0.00 | 0.00 | 0.00 | 63 | 1016.0 |
| 20260831111050 | 24 | 239 | 6.4 | 12.9 | 0.00 | 0.00 | 0.00 | 62 | 1015.9 |
| 20260831110551 | 25 | 302 | 4.8 | 12.9 | 0.00 | 0.00 | 0.00 | 61 | 1016.1 |
| 20260831110104 | 25 | 236 | 6.4 | 12.9 | 0.00 | 0.00 | 0.00 | 60 | 1015.7 |
| 20260831105551 | 25 | 345 | 0.0 | 14.5 | 0.00 | 0.00 | 0.00 | 60 | 1016.1 |
| 20260831105053 | 25 | 236 | 4.8 | 14.5 | 0.00 | 0.00 | 0.00 | 60 | 1015.9 |
| 20260831104051 | 25 | 234 | 8.0 | 11.3 | 0.00 | 0.00 | 0.00 | 61 | 1016.1 |
| 20260831103551 | 25 | 276 | 3.2 | 9.7 | 0.00 | 0.00 | 0.00 | 61 | 1015.9 |
| 20260831103051 | 24 | 233 | 4.8 | 9.7 | 0.00 | 0.00 | 0.00 | 62 | 1015.8 |
| 20260831102550 | 24 | 243 | 8.0 | 11.3 | 0.00 | 0.00 | 0.00 | 61 | 1015.7 |
| 20260831101550 | 24 | 277 | 3.2 | 6.4 | 0.00 | 0.00 | 0.00 | 62 | 1015.9 |
| 20260831101050 | 24 | 358 | 3.2 | 14.5 | 0.00 | 0.00 | 0.00 | 63 | 1015.9 |
| 20260831100551 | 23 | 295 | 1.6 | 14.5 | 0.00 | 0.00 | 0.00 | 63 | 1015.8 |
| 20260831100104 | 23 | 235 | 4.8 | 12.9 | 0.00 | 0.00 | 0.00 | 63 | 1015.8 |
| 20260831095551 | 24 | 246 | 6.4 | 16.1 | 0.00 | 0.00 | 0.00 | 63 | 1015.8 |
| 20260831095052 | 23 | 217 | 0.0 | 16.1 | 0.00 | 0.00 | 0.00 | 64 | 1015.9 |
| 20260831094550 | 23 | 248 | 3.2 | 14.5 | 0.00 | 0.00 | 0.00 | 65 | 1015.8 |
| 20260831093550 | 23 | 246 | 9.7 | 19.3 | 0.00 | 0.00 | 0.00 | 63 | 1015.8 |
| 20260831093051 | 23 | 225 | 8.0 | 19.3 | 0.00 | 0.00 | 0.00 | 62 | 1015.5 |
| 20260831092052 | 23 | 224 | 3.2 | 14.5 | 0.00 | 0.00 | 0.00 | 62 | 1015.6 |
| 20260831091551 | 22 | 218 | 1.6 | 20.9 | 0.00 | 0.00 | 0.00 | 65 | 1015.6 |
| 20260831091050 | 22 | 235 | 14.5 | 20.9 | 0.00 | 0.00 | 0.00 | 65 | 1015.8 |
| 20260831090104 | 22 | 10 | 1.6 | 8.0 | 0.00 | 0.00 | 0.00 | 67 | 1015.4 |
| 20260831085052 | 22 | 206 | 3.2 | 12.9 | 0.00 | 0.00 | 0.00 | 67 | 1015.9 |
| 20260831084551 | 22 | 235 | 8.0 | 9.7 | 0.00 | 0.00 | 0.00 | 67 | 1015.7 |
| 20260831084052 | 21 | 214 | 0.0 | 9.7 | 0.00 | 0.00 | 0.00 | 70 | 1015.8 |
| 20260831083550 | 21 | 214 | 3.2 | 9.7 | 0.00 | 0.00 | 0.00 | 71 | 1015.8 |
| 20260831083042 | 21 | 216 | 9.7 | 16.1 | 0.00 | 0.00 | 0.00 | 72 | 1015.5 |
| 20260831082545 | 21 | 217 | 6.4 | 16.1 | 0.00 | 0.00 | 0.00 | 73 | 1015.9 |
| 20260831081539 | 20 | 233 | 1.6 | 20.9 | 0.00 | 0.00 | 0.00 | 74 | 1015.7 |
| 20260831081039 | 20 | 229 | 8.0 | 20.9 | 0.00 | 0.00 | 0.00 | 74 | 1015.6 |
| 20260831080539 | 20 | 234 | 4.8 | 6.4 | 0.00 | 0.00 | 0.00 | 75 | 1015.3 |
| 20260831080053 | 20 | 218 | 3.2 | 6.4 | 0.00 | 0.00 | 0.00 | 73 | 1015.2 |
| 20260831075539 | 20 | 19 | 0.0 | 8.0 | 0.00 | 0.00 | 0.00 | 74 | 1015.1 |
| 20260831075038 | 20 | 237 | 6.4 | 8.0 | 0.00 | 0.00 | 0.00 | 74 | 1015.3 |
| 20260831074039 | 20 | 239 | 0.0 | 6.4 | 0.00 | 0.00 | 0.00 | 73 | 1015.1 |
| 20260831073538 | 20 | 217 | 0.0 | 3.2 | 0.00 | 0.00 | 0.00 | 73 | 1014.7 |
| 20260831073039 | 20 | 199 | 1.6 | 3.2 | 0.00 | 0.00 | 0.00 | 73 | 1014.4 |
| 20260831072539 | 20 | 205 | 0.0 | 3.2 | 0.00 | 0.00 | 0.00 | 73 | 1014.4 |
| 20260831072039 | 20 | 4 | 0.0 | 6.4 | 0.00 | 0.00 | 0.00 | 73 | 1014.3 |
| 20260831071539 | 20 | 122 | 3.2 | 6.4 | 0.00 | 0.00 | 0.00 | 73 | 1014.3 |
| 20260831071039 | 20 | 162 | 1.6 | 8.0 | 0.00 | 0.00 | 0.00 | 72 | 1013.5 |
| 20260831070051 | 20 | 117 | 0.0 | 4.8 | 0.00 | 0.00 | 0.00 | 70 | 1014.1 |
| 20260831065538 | 20 | 104 | 4.8 | 4.8 | 0.00 | 0.00 | 0.00 | 69 | 1014.4 |
| 20260831065038 | 20 | 104 | 0.0 | 6.4 | 0.00 | 0.00 | 0.00 | 69 | 1014.5 |
| 20260831064539 | 20 | 5 | 3.2 | 6.4 | 0.00 | 0.00 | 0.00 | 69 | 1014.8 |
| 20260831064038 | 20 | 269 | 0.0 | 4.8 | 0.00 | 0.00 | 0.00 | 69 | 1015.0 |
| 20260831063538 | 20 | 15 | 0.0 | 4.8 | 0.00 | 0.00 | 0.00 | 70 | 1014.9 |
| 20260831063038 | 20 | 310 | 0.0 | 3.2 | 0.00 | 0.00 | 0.00 | 71 | 1014.9 |
| 20260831062537 | 20 | 269 | 0.0 | 4.8 | 0.00 | 0.00 | 0.00 | 72 | 1014.8 |
| 20260831062039 | 19 | 230 | 0.0 | 4.8 | 0.00 | 0.00 | 0.00 | 73 | 1014.5 |
| 20260831061538 | 19 | 29 | 0.0 | 3.2 | 0.00 | 0.00 | 0.00 | 73 | 1015.0 |
| 20260831061040 | 19 | 3 | 0.0 | 3.2 | 0.00 | 0.00 | 0.00 | 73 | 1014.8 |
| 20260831060539 | 19 | 5 | 0.0 | 3.2 | 0.00 | 0.00 | 0.00 | 74 | 1014.8 |
| 20260831055538 | 18 | 2 | 0.0 | 3.2 | 0.00 | 0.00 | 0.00 | 77 | 1014.5 |
| 20260831055039 | 18 | 351 | 0.0 | 1.6 | 0.00 | 0.00 | 0.00 | 79 | 1014.3 |
| 20260831054539 | 18 | 29 | 0.0 | 1.6 | 0.00 | 0.00 | 0.00 | 78 | 1014.3 |
| 20260831054039 | 18 | 25 | 1.6 | 3.2 | 0.00 | 0.00 | 0.00 | 79 | 1014.2 |
| 20260831053551 | 18 | 38 | 0.0 | 3.2 | 0.00 | 0.00 | 0.00 | 79 | 1014.2 |
| 20260831053040 | 17 | 8 | 0.0 | 3.2 | 0.00 | 0.00 | 0.00 | 79 | 1014.0 |
| 20260831052538 | 17 | 13 | 1.6 | 3.2 | 0.00 | 0.00 | 0.00 | 80 | 1014.2 |
| 20260831052039 | 17 | 44 | 0.0 | 3.2 | 0.00 | 0.00 | 0.00 | 79 | 1014.3 |
| 20260831051551 | 17 | 224 | 0.0 | 3.2 | 0.00 | 0.00 | 0.00 | 79 | 1014.2 |
| 20260831051038 | 17 | 63 | 0.0 | 4.8 | 0.00 | 0.00 | 0.00 | 80 | 1013.9 |
| 20260831050539 | 17 | 135 | 0.0 | 4.8 | 0.00 | 0.00 | 0.00 | 80 | 1014.1 |
| 20260831050051 | 16 | 105 | 0.0 | 4.8 | 0.00 | 0.00 | 0.00 | 81 | 1014.2 |
| 20260831045538 | 16 | 142 | 0.0 | 3.2 | 0.00 | 0.00 | 0.00 | 82 | 1014.1 |
| 20260831045038 | 16 | 154 | 0.0 | 1.6 | 0.00 | 0.00 | 0.00 | 82 | 1014.2 |
| 20260831044538 | 16 | 32 | 0.0 | 1.6 | 0.00 | 0.00 | 0.00 | 84 | 1014.1 |
| 20260831044039 | 16 | 147 | 0.0 | 1.6 | 0.00 | 0.00 | 0.00 | 84 | 1014.1 |
| 20260831043537 | 16 | 50 | 0.0 | 1.6 | 0.00 | 0.00 | 0.00 | 85 | 1014.1 |
| 20260831043038 | 16 | 23 | 0.0 | 3.2 | 0.00 | 0.00 | 0.00 | 85 | 1014.2 |
| 20260831042538 | 15 | 89 | 0.0 | 3.2 | 0.00 | 0.00 | 0.00 | 85 | 1014.3 |
| 20260831041537 | 15 | 117 | 0.0 | 3.2 | 0.00 | 0.00 | 0.00 | 85 | 1014.3 |
| 20260831040537 | 15 | 135 | 0.0 | 3.2 | 0.00 | 0.00 | 0.00 | 84 | 1014.2 |
| 20260831040038 | 16 | 44 | 0.0 | 3.2 | 0.00 | 0.00 | 0.00 | 84 | 1014.3 |
| 20260831035538 | 15 | 39 | 0.0 | 3.2 | 0.00 | 0.00 | 0.00 | 84 | 1014.3 |
| 20260831035036 | 15 | 135 | 0.0 | 3.2 | 0.00 | 0.00 | 0.00 | 84 | 1014.4 |
| 20260831034537 | 15 | 37 | 0.0 | 3.2 | 0.00 | 0.00 | 0.00 | 84 | 1014.3 |
| 20260831034036 | 15 | 11 | 1.6 | 3.2 | 0.00 | 0.00 | 0.00 | 84 | 1014.2 |
| 20260831033536 | 15 | 99 | 0.0 | 3.2 | 0.00 | 0.00 | 0.00 | 84 | 1014.3 |
| 20260831033037 | 15 | 38 | 0.0 | 3.2 | 0.00 | 0.00 | 0.00 | 84 | 1014.3 |
| 20260831032036 | 15 | 35 | 0.0 | 1.6 | 0.00 | 0.00 | 0.00 | 85 | 1014.3 |
| 20260831031536 | 15 | 125 | 0.0 | 1.6 | 0.00 | 0.00 | 0.00 | 85 | 1014.5 |
| 20260831031037 | 15 | 37 | 0.0 | 3.2 | 0.00 | 0.00 | 0.00 | 84 | 1014.2 |
| 20260831030537 | 15 | 55 | 0.0 | 3.2 | 0.00 | 0.00 | 0.00 | 84 | 1014.1 |
| 20260831030049 | 15 | 35 | 0.0 | 3.2 | 0.00 | 0.00 | 0.00 | 84 | 1014.1 |
| 20260831025536 | 15 | 62 | 0.0 | 3.2 | 0.00 | 0.00 | 0.00 | 84 | 1014.1 |
| 20260831025036 | 15 | 37 | 0.0 | 3.2 | 0.00 | 0.00 | 0.00 | 84 | 1014.1 |
| 20260831024536 | 15 | 62 | 0.0 | 1.6 | 0.00 | 0.00 | 0.00 | 84 | 1014.0 |
| 20260831024036 | 15 | 154 | 0.0 | 3.2 | 0.00 | 0.00 | 0.00 | 84 | 1014.0 |
| 20260831023536 | 15 | 124 | 0.0 | 3.2 | 0.00 | 0.00 | 0.00 | 83 | 1014.2 |
| 20260831023036 | 15 | 142 | 0.0 | 4.8 | 0.00 | 0.00 | 0.00 | 83 | 1014.0 |
| 20260831022536 | 16 | 130 | 3.2 | 4.8 | 0.00 | 0.00 | 0.00 | 83 | 1014.1 |
| 20260831022036 | 16 | 142 | 0.0 | 3.2 | 0.00 | 0.00 | 0.00 | 82 | 1014.1 |
| 20260831021535 | 16 | 150 | 0.0 | 1.6 | 0.00 | 0.00 | 0.00 | 81 | 1014.2 |
| 20260831021035 | 16 | 44 | 0.0 | 1.6 | 0.00 | 0.00 | 0.00 | 80 | 1014.2 |
| 20260831020535 | 16 | 44 | 0.0 | 3.2 | 0.00 | 0.00 | 0.00 | 79 | 1014.4 |
| 20260831020034 | 16 | 22 | 0.0 | 3.2 | 0.00 | 0.00 | 0.00 | 79 | 1014.3 |
| 20260831015535 | 16 | 357 | 0.0 | 3.2 | 0.00 | 0.00 | 0.00 | 79 | 1014.2 |
| 20260831015035 | 16 | 27 | 0.0 | 4.8 | 0.00 | 0.00 | 0.00 | 79 | 1014.1 |
| 20260831014536 | 16 | 345 | 0.0 | 4.8 | 0.00 | 0.00 | 0.00 | 79 | 1014.1 |
| 20260831014035 | 16 | 63 | 1.6 | 4.8 | 0.00 | 0.00 | 0.00 | 79 | 1014.2 |
| 20260831013034 | 16 | 9 | 3.2 | 3.2 | 0.00 | 0.00 | 0.00 | 79 | 1014.2 |
| 20260831012535 | 16 | 21 | 3.2 | 3.2 | 0.00 | 0.00 | 0.00 | 80 | 1014.2 |
| 20260831012035 | 16 | 42 | 1.6 | 3.2 | 0.00 | 0.00 | 0.00 | 80 | 1014.1 |
| 20260831011535 | 16 | 4 | 3.2 | 3.2 | 0.00 | 0.00 | 0.00 | 80 | 1014.3 |
| 20260831011035 | 16 | 20 | 1.6 | 3.2 | 0.00 | 0.00 | 0.00 | 81 | 1014.4 |
| 20260831010535 | 16 | 135 | 0.0 | 3.2 | 0.00 | 0.00 | 0.00 | 80 | 1014.4 |
| 20260831010035 | 16 | 40 | 0.0 | 3.2 | 0.00 | 0.00 | 0.00 | 80 | 1014.2 |
| 20260831005534 | 16 | 17 | 1.6 | 3.2 | 0.00 | 0.00 | 0.00 | 80 | 1014.2 |
| 20260831005036 | 16 | 58 | 0.0 | 3.2 | 0.00 | 0.00 | 0.00 | 80 | 1014.4 |
| 20260831004535 | 16 | 38 | 0.0 | 1.6 | 0.00 | 0.00 | 0.00 | 80 | 1014.5 |
| 20260831004034 | 16 | 62 | 0.0 | 1.6 | 0.00 | 0.00 | 0.00 | 79 | 1014.3 |
| 20260831003035 | 17 | 34 | 0.0 | 3.2 | 0.00 | 0.00 | 0.00 | 79 | 1014.7 |
| 20260831002535 | 17 | 21 | 1.6 | 3.2 | 0.00 | 0.00 | 0.00 | 79 | 1014.5 |
| 20260831002034 | 17 | 31 | 1.6 | 3.2 | 0.00 | 0.00 | 0.00 | 79 | 1014.7 |
| 20260831001534 | 17 | 38 | 0.0 | 3.2 | 0.00 | 0.00 | 0.00 | 80 | 1014.8 |
| 20260831001035 | 17 | 41 | 0.0 | 3.2 | 0.00 | 0.00 | 0.00 | 80 | 1014.8 |
| 20260831000535 | 17 | 353 | 0.0 | 3.2 | 0.00 | 0.00 | 0.00 | 79 | 1014.7 |
| 20260831000035 | 17 | 50 | 0.0 | 1.6 | 0.00 | 0.00 | 0.00 | 79 | 1014.6 |
| 20260830235534 | 17 | 63 | 0.0 | 1.6 | 0.00 | 0.00 | 0.00 | 79 | 1014.8 |
| 20260830235034 | 17 | 44 | 0.0 | 1.6 | 0.00 | 0.00 | 0.00 | 79 | 1014.8 |
| 20260830234522 | 17 | 25 | 0.0 | 1.6 | 0.00 | 0.00 | 0.00 | 78 | 1014.8 |
| 20260830234022 | 17 | 25 | 0.0 | 1.6 | 0.00 | 0.00 | 0.00 | 78 | 1015.0 |
| 20260830233521 | 17 | 44 | 0.0 | 3.2 | 0.00 | 0.00 | 0.00 | 77 | 1014.6 |
| 20260830232534 | 17 | 34 | 1.6 | 1.6 | 0.00 | 0.00 | 0.00 | 79 | 1015.0 |
| 20260830232022 | 17 | 333 | 0.0 | 1.6 | 0.00 | 0.00 | 0.00 | 78 | 1015.1 |
| 20260830231521 | 17 | 19 | 0.0 | 1.6 | 0.00 | 0.00 | 0.00 | 78 | 1014.9 |
| 20260830231033 | 17 | 62 | 0.0 | 3.2 | 0.00 | 0.00 | 0.00 | 76 | 1014.8 |
| 20260830230534 | 17 | 20 | 0.0 | 3.2 | 0.00 | 0.00 | 0.00 | 76 | 1015.0 |
| 20260830230021 | 17 | 44 | 0.0 | 0.0 | 0.00 | 0.00 | 0.00 | 77 | 1014.9 |
| 20260830225521 | 17 | 13 | 0.0 | 0.0 | 0.00 | 0.00 | 0.00 | 76 | 1014.9 |
| 20260830225007 | 17 | 13 | 0.0 | 1.6 | 0.00 | 0.00 | 0.00 | 75 | 1015.0 |
| 20260830224506 | 18 | 39 | 0.0 | 3.2 | 0.00 | 0.00 | 0.00 | 74 | 1015.0 |
| 20260830224006 | 18 | 37 | 0.0 | 3.2 | 0.00 | 0.00 | 0.00 | 74 | 1014.9 |
| 20260830223507 | 18 | 36 | 1.6 | 3.2 | 0.00 | 0.00 | 0.00 | 74 | 1015.1 |
| 20260830223006 | 18 | 315 | 0.0 | 3.2 | 0.00 | 0.00 | 0.00 | 75 | 1015.3 |
| 20260830222506 | 18 | 39 | 1.6 | 3.2 | 0.00 | 0.00 | 0.00 | 75 | 1015.3 |
| 20260830222006 | 18 | 9 | 1.6 | 3.2 | 0.00 | 0.00 | 0.00 | 75 | 1015.2 |
| 20260830221507 | 18 | 66 | 0.0 | 1.6 | 0.00 | 0.00 | 0.00 | 74 | 1015.1 |
| 20260830221005 | 18 | 44 | 0.0 | 3.2 | 0.00 | 0.00 | 0.00 | 73 | 1015.0 |
| 20260830220506 | 18 | 37 | 0.0 | 3.2 | 0.00 | 0.00 | 0.00 | 73 | 1015.2 |
| 20260830220007 | 18 | 5 | 0.0 | 3.2 | 0.00 | 0.00 | 0.00 | 73 | 1015.0 |
| 20260830215506 | 18 | 26 | 1.6 | 3.2 | 0.00 | 0.00 | 0.00 | 73 | 1015.3 |
| 20260830215007 | 18 | 354 | 1.6 | 3.2 | 0.00 | 0.00 | 0.00 | 73 | 1015.3 |
| 20260830214506 | 18 | 44 | 0.0 | 3.2 | 0.00 | 0.00 | 0.00 | 74 | 1015.1 |
| 20260830213506 | 18 | 44 | 0.0 | 1.6 | 0.00 | 0.00 | 0.00 | 73 | 1015.1 |
| 20260830213006 | 19 | 45 | 0.0 | 1.6 | 0.00 | 0.00 | 0.00 | 74 | 1015.1 |
| 20260830212506 | 19 | 37 | 0.0 | 3.2 | 0.00 | 0.00 | 0.00 | 74 | 1015.1 |
| 20260830212006 | 19 | 10 | 0.0 | 3.2 | 0.00 | 0.00 | 0.00 | 74 | 1015.3 |
| 20260830211506 | 19 | 33 | 0.0 | 1.6 | 0.00 | 0.00 | 0.00 | 73 | 1015.1 |
| 20260830211006 | 19 | 44 | 0.0 | 1.6 | 0.00 | 0.00 | 0.00 | 73 | 1015.1 |
| 20260830210507 | 19 | 39 | 1.6 | 1.6 | 0.00 | 0.00 | 0.00 | 73 | 1015.2 |
| 20260830205506 | 20 | 37 | 0.0 | 3.2 | 0.00 | 0.00 | 0.00 | 72 | 1015.2 |
| 20260830205006 | 20 | 30 | 1.6 | 3.2 | 0.00 | 0.00 | 0.00 | 72 | 1015.1 |
| 20260830204506 | 20 | 44 | 0.0 | 3.2 | 0.00 | 0.00 | 0.00 | 72 | 1014.9 |
| 20260830204007 | 20 | 22 | 0.0 | 1.6 | 0.00 | 0.00 | 0.00 | 72 | 1015.3 |
| 20260830203506 | 20 | 50 | 0.0 | 0.0 | 0.00 | 0.00 | 0.00 | 72 | 1015.1 |
| 20260830203006 | 20 | 140 | 0.0 | 0.0 | 0.00 | 0.00 | 0.00 | 70 | 1014.9 |
| 20260830202506 | 20 | 154 | 0.0 | 0.0 | 0.00 | 0.00 | 0.00 | 69 | 1015.2 |
| 20260830202006 | 20 | 154 | 0.0 | 1.6 | 0.00 | 0.00 | 0.00 | 69 | 1015.1 |
| 20260830201506 | 20 | 160 | 0.0 | 1.6 | 0.00 | 0.00 | 0.00 | 69 | 1015.2 |
| 20260830201006 | 20 | 224 | 0.0 | 0.0 | 0.00 | 0.00 | 0.00 | 68 | 1014.9 |
| 20260830200506 | 20 | 224 | 0.0 | 0.0 | 0.00 | 0.00 | 0.00 | 68 | 1015.1 |
| 20260830200005 | 20 | 283 | 0.0 | 0.0 | 0.00 | 0.00 | 0.00 | 67 | 1015.1 |
| 20260830195506 | 21 | 283 | 0.0 | 0.0 | 0.00 | 0.00 | 0.00 | 66 | 1015.3 |
| 20260830195007 | 21 | 283 | 0.0 | 0.0 | 0.00 | 0.00 | 0.00 | 65 | 1015.0 |
| 20260830194506 | 21 | 283 | 0.0 | 1.6 | 0.00 | 0.00 | 0.00 | 65 | 1015.2 |
| 20260830194006 | 21 | 283 | 0.0 | 1.6 | 0.00 | 0.00 | 0.00 | 64 | 1015.0 |
| 20260830193006 | 21 | 164 | 0.0 | 3.2 | 0.00 | 0.00 | 0.00 | 61 | 1015.0 |
| 20260830192506 | 22 | 166 | 0.0 | 3.2 | 0.00 | 0.00 | 0.00 | 60 | 1015.1 |
| 20260830192006 | 22 | 134 | 0.0 | 3.2 | 0.00 | 0.00 | 0.00 | 60 | 1015.0 |
| 20260830191507 | 22 | 158 | 0.0 | 3.2 | 0.00 | 0.00 | 0.00 | 60 | 1015.0 |
| 20260830190506 | 22 | 230 | 0.0 | 3.2 | 0.00 | 0.00 | 0.00 | 60 | 1015.1 |
| 20260830190006 | 22 | 141 | 0.0 | 3.2 | 0.00 | 0.00 | 0.00 | 60 | 1014.9 |
| 20260830184505 | 23 | 0 | 0.0 | 1.6 | 0.00 | 0.00 | 0.00 | 56 | 1014.7 |
| 20260830184005 | 23 | 343 | 0.0 | 1.6 | 0.00 | 0.00 | 0.00 | 56 | 1014.8 |
| 20260830183005 | 23 | 25 | 0.0 | 0.0 | 0.00 | 0.00 | 0.00 | 54 | 1014.7 |
| 20260830182505 | 23 | 25 | 0.0 | 0.0 | 0.00 | 0.00 | 0.00 | 53 | 1014.6 |
| 20260830181506 | 24 | 338 | 0.0 | 1.6 | 0.00 | 0.00 | 0.00 | 52 | 1014.5 |
| 20260830181005 | 24 | 33 | 0.0 | 3.2 | 0.00 | 0.00 | 0.00 | 51 | 1014.6 |
| 20260830180504 | 25 | 352 | 1.6 | 3.2 | 0.00 | 0.00 | 0.00 | 51 | 1014.5 |
| 20260830180005 | 25 | 15 | 0.0 | 3.2 | 0.00 | 0.00 | 0.00 | 51 | 1014.3 |
| 20260830175505 | 25 | 15 | 1.6 | 1.6 | 0.00 | 0.00 | 0.00 | 51 | 1014.2 |
| 20260830175005 | 25 | 279 | 0.0 | 0.0 | 0.00 | 0.00 | 0.00 | 51 | 1014.0 |
| 20260830174505 | 26 | 255 | 0.0 | 0.0 | 0.00 | 0.00 | 0.00 | 50 | 1014.4 |
| 20260830174005 | 26 | 242 | 0.0 | 1.6 | 0.00 | 0.00 | 0.00 | 48 | 1014.0 |
| 20260830173005 | 27 | 284 | 0.0 | 1.6 | 0.00 | 0.00 | 0.00 | 45 | 1014.1 |
| 20260830172453 | 27 | 279 | 0.0 | 1.6 | 0.00 | 0.00 | 0.00 | 44 | 1014.2 |
| 20260830171953 | 27 | 293 | 0.0 | 1.6 | 0.00 | 0.00 | 0.00 | 43 | 1014.2 |
| 20260830171453 | 28 | 255 | 0.0 | 3.2 | 0.00 | 0.00 | 0.00 | 42 | 1014.2 |
| 20260830170953 | 28 | 253 | 0.0 | 6.4 | 0.00 | 0.00 | 0.00 | 42 | 1013.8 |
| 20260830170453 | 28 | 318 | 0.0 | 6.4 | 0.00 | 0.00 | 0.00 | 41 | 1013.8 |
| 20260830165953 | 29 | 335 | 0.0 | 4.8 | 0.00 | 0.00 | 0.00 | 42 | 1013.8 |
| 20260830165453 | 29 | 228 | 3.2 | 6.4 | 0.00 | 0.00 | 0.00 | 41 | 1013.8 |
| 20260830164954 | 29 | 224 | 3.2 | 6.4 | 0.00 | 0.00 | 0.00 | 41 | 1013.5 |
| 20260830164453 | 29 | 231 | 3.2 | 9.7 | 0.00 | 0.00 | 0.00 | 40 | 1013.9 |
| 20260830163953 | 30 | 234 | 6.4 | 9.7 | 0.00 | 0.00 | 0.00 | 40 | 1013.9 |
| 20260830163453 | 30 | 0 | 0.0 | 6.4 | 0.00 | 0.00 | 0.00 | 39 | 1014.0 |
| 20260830162953 | 30 | 244 | 3.2 | 8.0 | 0.00 | 0.00 | 0.00 | 39 | 1013.8 |
| 20260830162453 | 30 | 229 | 3.2 | 9.7 | 0.00 | 0.00 | 0.00 | 39 | 1013.9 |
| 20260830161954 | 30 | 277 | 3.2 | 11.3 | 0.00 | 0.00 | 0.00 | 40 | 1014.2 |
| 20260830161453 | 30 | 237 | 4.8 | 16.1 | 0.00 | 0.00 | 0.00 | 39 | 1014.0 |
| 20260830160953 | 30 | 216 | 3.2 | 16.1 | 0.00 | 0.00 | 0.00 | 39 | 1013.9 |
| 20260830155953 | 31 | 223 | 8.0 | 11.3 | 0.00 | 0.00 | 0.00 | 38 | 1013.8 |
| 20260830155453 | 31 | 242 | 4.8 | 11.3 | 0.00 | 0.00 | 0.00 | 39 | 1013.9 |
| 20260830154953 | 31 | 248 | 6.4 | 12.9 | 0.00 | 0.00 | 0.00 | 38 | 1013.9 |
| 20260830153953 | 31 | 237 | 4.8 | 12.9 | 0.00 | 0.00 | 0.00 | 37 | 1014.1 |
| 20260830152953 | 30 | 224 | 3.2 | 16.1 | 0.00 | 0.00 | 0.00 | 37 | 1014.3 |
| 20260830152452 | 30 | 256 | 6.4 | 19.3 | 0.00 | 0.00 | 0.00 | 39 | 1014.1 |
| 20260830151954 | 30 | 247 | 3.2 | 19.3 | 0.00 | 0.00 | 0.00 | 39 | 1014.0 |
| 20260830151453 | 30 | 236 | 8.0 | 14.5 | 0.00 | 0.00 | 0.00 | 38 | 1014.2 |
| 20260830150953 | 31 | 237 | 3.2 | 14.5 | 0.00 | 0.00 | 0.00 | 38 | 1014.2 |
| 20260830150453 | 31 | 238 | 8.0 | 17.7 | 0.00 | 0.00 | 0.00 | 38 | 1014.1 |
| 20260830145953 | 31 | 206 | 4.8 | 17.7 | 0.00 | 0.00 | 0.00 | 38 | 1014.2 |
| 20260830145453 | 30 | 222 | 6.4 | 14.5 | 0.00 | 0.00 | 0.00 | 38 | 1014.2 |
| 20260830144953 | 30 | 221 | 8.0 | 14.5 | 0.00 | 0.00 | 0.00 | 37 | 1014.5 |
| 20260830144453 | 31 | 239 | 8.0 | 14.5 | 0.00 | 0.00 | 0.00 | 38 | 1014.3 |
| 20260830143454 | 30 | 207 | 6.4 | 25.7 | 0.00 | 0.00 | 0.00 | 38 | 1014.3 |
| 20260830142953 | 30 | 240 | 14.5 | 25.7 | 0.00 | 0.00 | 0.00 | 37 | 1014.7 |
| 20260830142454 | 31 | 236 | 8.0 | 16.1 | 0.00 | 0.00 | 0.00 | 37 | 1014.2 |
| 20260830141453 | 30 | 244 | 8.0 | 22.5 | 0.00 | 0.00 | 0.00 | 38 | 1014.4 |
| 20260830140954 | 30 | 206 | 9.7 | 16.1 | 0.00 | 0.00 | 0.00 | 38 | 1014.4 |
| 20260830140454 | 30 | 195 | 9.7 | 19.3 | 0.00 | 0.00 | 0.00 | 38 | 1014.6 |
| 20260830135953 | 30 | 238 | 8.0 | 24.1 | 0.00 | 0.00 | 0.00 | 37 | 1014.5 |
| 20260830134953 | 31 | 192 | 6.4 | 22.5 | 0.00 | 0.00 | 0.00 | 37 | 1014.6 |
| 20260830133953 | 31 | 226 | 12.9 | 17.7 | 0.00 | 0.00 | 0.00 | 37 | 1014.6 |
| 20260830133454 | 31 | 223 | 11.3 | 19.3 | 0.00 | 0.00 | 0.00 | 37 | 1014.7 |
| 20260830132953 | 30 | 222 | 9.7 | 20.9 | 0.00 | 0.00 | 0.00 | 38 | 1014.8 |
| 20260830131952 | 31 | 200 | 11.3 | 24.1 | 0.00 | 0.00 | 0.00 | 38 | 1014.8 |
| 20260830131452 | 31 | 237 | 4.8 | 24.1 | 0.00 | 0.00 | 0.00 | 37 | 1014.8 |
| 20260830130953 | 31 | 264 | 4.8 | 24.1 | 0.00 | 0.00 | 0.00 | 37 | 1014.7 |
| 20260830130454 | 31 | 155 | 3.2 | 24.1 | 0.00 | 0.00 | 0.00 | 37 | 1015.0 |
| 20260830125953 | 31 | 221 | 8.0 | 19.3 | 0.00 | 0.00 | 0.00 | 37 | 1015.1 |
| 20260830125453 | 31 | 285 | 3.2 | 19.3 | 0.00 | 0.00 | 0.00 | 36 | 1014.9 |
| 20260830124953 | 32 | 274 | 4.8 | 12.9 | 0.00 | 0.00 | 0.00 | 36 | 1015.1 |
| 20260830124453 | 32 | 222 | 4.8 | 20.9 | 0.00 | 0.00 | 0.00 | 35 | 1015.1 |
| 20260830123953 | 31 | 228 | 8.0 | 20.9 | 0.00 | 0.00 | 0.00 | 36 | 1015.2 |
| 20260830123453 | 31 | 238 | 8.0 | 24.1 | 0.00 | 0.00 | 0.00 | 37 | 1015.0 |
| 20260830122953 | 31 | 231 | 6.4 | 24.1 | 0.00 | 0.00 | 0.00 | 36 | 1015.0 |
| 20260830122453 | 31 | 220 | 9.7 | 14.5 | 0.00 | 0.00 | 0.00 | 36 | 1015.1 |
| 20260830121953 | 30 | 230 | 8.0 | 20.9 | 0.00 | 0.00 | 0.00 | 38 | 1015.2 |
| 20260830121453 | 30 | 210 | 3.2 | 20.9 | 0.00 | 0.00 | 0.00 | 37 | 1015.2 |
| 20260830120953 | 31 | 246 | 4.8 | 19.3 | 0.00 | 0.00 | 0.00 | 37 | 1015.4 |
| 20260830120453 | 32 | 210 | 3.2 | 8.0 | 0.00 | 0.00 | 0.00 | 35 | 1015.3 |
| 20260830115453 | 32 | 351 | 3.2 | 17.7 | 0.00 | 0.00 | 0.00 | 36 | 1015.5 |
| 20260830114453 | 30 | 225 | 9.7 | 14.5 | 0.00 | 0.00 | 0.00 | 38 | 1015.4 |
| 20260830113952 | 30 | 180 | 3.2 | 25.7 | 0.00 | 0.00 | 0.00 | 38 | 1015.3 |
| 20260830113453 | 29 | 201 | 6.4 | 25.7 | 0.00 | 0.00 | 0.00 | 40 | 1015.5 |
| 20260830112953 | 30 | 264 | 6.4 | 24.1 | 0.00 | 0.00 | 0.00 | 39 | 1015.8 |